Date String (YYYY-MM-DD hh:mm:ss) UTC,Instrument flags,absolute air pressure of the measurement (hPa),sample flow rate (lpm),inlet stack bypass flow (lpm),air temperature of the measurement (°C),ambient temperature measured by the external sensor (°C),aerosol sample conditioner tube jacket temperature (°C),OPC LED temperature (°C),internal box temperature (°C),relative humidity of the measurement (%),span deviation,mass concentration of particles derived from Lorenz-Mie calculation of OPC scattering (μg/m³),mass concentration of particles derived from Lorenz-Mie calculation of OPC scattering (μg/m³),mass concentration of particles derived from Lorenz-Mie calculation of OPC scattering (μg/m³)
DateTimeUTC,F1_M11,P_M11,Q1_M11,Q2_M11,T1_M11,T2_M11,T3_M11,T4_M11,T5_M11,U1_M11,ZSPAN_M11,X0_M11,X2_M11,X1_M11
2023-09-23 14:00:00,SystemResetWarning,0828.6,5.00,000.00,027.4,026.0,000.0,035.7,028.9,8.1,0001.0,0009.16,0003.95,0003.54
2023-09-23 14:01:00,SystemResetWarning,0828.6,5.00,000.00,027.4,026.0,000.0,035.7,029.0,8.4,0002.2,0009.12,0003.94,0003.52
2023-09-23 14:02:00,SystemResetWarning,0828.6,5.00,000.00,027.4,026.0,000.0,035.7,029.0,8.3,0002.7,0008.76,0003.92,0003.50
2023-09-23 14:03:00,SystemResetWarning,0828.7,5.01,000.00,027.4,026.0,000.0,035.7,029.0,8.0,0002.2,0008.70,0003.91,0003.49
2023-09-23 14:04:00,SystemResetWarning,0828.7,5.00,000.00,027.4,026.0,000.0,035.7,029.0,7.0,0001.4,0008.27,0003.89,0003.47
2023-09-23 14:05:00,SystemResetWarning,0828.7,4.99,000.00,027.4,026.0,000.0,035.7,029.1,6.8,0001.6,0008.12,0003.88,0003.47
2023-09-23 14:06:00,SystemResetWarning,0828.7,5.00,000.00,027.4,026.1,000.0,035.7,029.1,7.0,0003.3,0008.13,0003.88,0003.47
2023-09-23 14:07:00,SystemResetWarning,0828.8,5.01,000.00,027.5,026.1,000.0,035.7,029.1,7.4,0003.2,0008.61,0003.88,0003.47
2023-09-23 14:08:00,SystemResetWarning,0828.8,5.00,000.00,027.5,026.1,000.0,035.7,029.1,7.7,0003.5,0009.45,0003.91,0003.46
2023-09-23 14:09:00,SystemResetWarning,0828.8,5.00,000.00,027.5,026.1,000.0,035.7,029.1,7.0,0003.6,0009.63,0003.91,0003.45
2023-09-23 14:10:00,SystemResetWarning,0828.8,5.00,000.00,027.5,026.1,000.0,035.7,029.1,7.5,0003.4,0009.66,0003.90,0003.45
2023-09-23 14:11:00,SystemResetWarning,0828.8,5.00,000.00,027.5,026.1,000.0,035.7,029.1,7.6,0003.2,0009.09,0003.90,0003.46
2023-09-23 14:12:00,SystemResetWarning,0828.8,5.00,000.00,027.5,026.2,000.0,035.7,029.1,7.8,0001.9,0008.95,0003.89,0003.47
2023-09-23 14:13:00,SystemResetWarning,0828.8,5.00,000.00,027.5,026.2,000.0,035.7,029.2,6.8,0000.0,0009.49,0003.90,0003.48
2023-09-23 14:14:00,SystemResetWarning,0828.8,5.00,000.00,027.5,026.2,000.0,035.8,029.2,6.8,0000.5,0009.51,0003.88,0003.47
2023-09-23 14:15:00,SystemResetWarning,0828.7,5.00,000.00,027.6,026.2,000.0,035.8,029.2,6.8,0000.0,0009.58,0003.88,0003.46
2023-09-23 14:16:00,SystemResetWarning,0828.7,4.99,000.00,027.6,026.2,000.0,035.8,029.2,7.2,0000.0,0009.93,0003.88,0003.46
2023-09-23 14:17:00,SystemResetWarning,0828.7,4.99,000.00,027.6,026.3,000.0,035.8,029.2,6.9,0000.0,0009.79,0003.84,0003.45
2023-09-23 14:18:00,SystemResetWarning,0828.6,5.00,000.00,027.6,026.3,000.0,035.8,029.3,6.9,0000.0,0009.28,0003.85,0003.44
2023-09-23 14:19:00,SystemResetWarning,0828.7,5.00,000.00,027.6,026.3,000.0,035.8,029.3,6.8,0000.0,0008.51,0003.83,0003.44
2023-09-23 14:20:00,SystemResetWarning,0828.6,5.00,000.00,027.6,026.3,000.0,035.8,029.3,6.7,0000.0,0008.33,0003.80,0003.43
2023-09-23 14:21:00,SystemResetWarning,0828.6,5.00,000.00,027.7,026.4,000.0,035.8,029.3,6.8,0000.0,0008.44,0003.83,0003.42
2023-09-23 14:22:00,SystemResetWarning,0828.6,5.00,000.00,027.7,026.4,000.0,035.9,029.3,6.8,0000.0,0008.44,0003.87,0003.41
2023-09-23 14:23:00,SystemResetWarning,0828.5,5.01,000.00,027.7,026.4,000.0,035.9,029.3,6.9,0000.0,0008.36,0003.86,0003.39
2023-09-23 14:24:00,SystemResetWarning,0828.4,5.00,000.00,027.7,026.4,000.0,035.9,029.3,6.8,0000.0,0008.17,0003.88,0003.37
2023-09-23 14:25:00,SystemResetWarning,0828.3,5.00,000.00,027.7,026.4,000.0,035.9,029.3,6.8,0000.0,0008.20,0003.89,0003.36
2023-09-23 14:26:00,SystemResetWarning,0828.3,5.00,000.00,027.7,026.4,000.0,035.9,029.4,7.2,0000.0,0008.70,0003.91,0003.37
2023-09-23 14:27:00,SystemResetWarning,0828.3,5.00,000.00,027.7,026.4,000.0,035.9,029.3,6.9,0000.3,0008.39,0003.90,0003.35
2023-09-23 14:28:00,SystemResetWarning,0828.3,5.00,000.00,027.7,026.4,000.0,035.9,029.3,7.0,0002.7,0008.38,0003.95,0003.35
2023-09-23 14:29:00,SystemResetWarning,0828.3,5.00,000.00,027.7,026.4,000.0,035.9,029.4,7.4,0002.4,0008.46,0003.95,0003.35
2023-09-23 14:30:00,SystemResetWarning,0828.2,5.00,000.00,027.8,026.5,000.0,036.0,029.4,7.4,0001.7,0008.63,0003.94,0003.34
2023-09-23 14:31:00,SystemResetWarning,0828.1,5.00,000.00,027.8,026.5,000.0,036.0,029.3,7.1,0001.5,0008.57,0003.94,0003.33
2023-09-23 14:32:00,SystemResetWarning,0828.2,5.00,000.00,027.8,026.5,000.0,036.0,029.4,7.4,0001.5,0008.59,0003.96,0003.33
2023-09-23 14:33:00,SystemResetWarning,0828.4,5.01,000.00,027.8,026.5,000.0,036.0,029.4,7.2,0001.4,0009.09,0003.92,0003.32
2023-09-23 14:34:00,SystemResetWarning,0828.4,5.00,000.00,027.8,026.5,000.0,036.0,029.4,7.3,0000.9,0009.16,0003.92,0003.33
2023-09-23 14:35:00,SystemResetWarning,0828.4,5.00,000.00,027.8,026.5,000.0,036.0,029.4,7.1,0000.4,0009.50,0003.91,0003.33
2023-09-23 14:36:00,SystemResetWarning,0828.5,5.00,000.00,027.8,026.5,000.0,036.0,029.4,7.0,0000.1,0009.22,0003.89,0003.33
2023-09-23 14:37:00,SystemResetWarning,0828.6,5.00,000.00,027.8,026.5,000.0,036.0,029.4,7.1,-000.3,0008.76,0003.89,0003.33
2023-09-23 14:38:00,SystemResetWarning,0828.5,5.00,000.00,027.8,026.5,000.0,036.0,029.4,7.2,-000.9,0008.70,0003.89,0003.34
2023-09-23 14:39:00,SystemResetWarning,0828.6,5.00,000.00,027.8,026.5,000.0,036.1,029.4,7.1,-000.5,0008.78,0003.86,0003.33
2023-09-23 14:40:00,SystemResetWarning,0828.7,5.00,000.00,027.9,026.5,000.0,036.1,029.4,7.2,0000.3,0008.71,0003.85,0003.33
2023-09-23 14:41:00,SystemResetWarning,0828.7,5.00,000.00,027.9,026.5,000.0,036.1,029.4,7.4,0000.0,0008.57,0003.85,0003.32
2023-09-23 14:42:00,SystemResetWarning,0828.6,5.00,000.00,027.9,026.6,000.0,036.1,029.5,7.7,0000.5,0008.44,0003.84,0003.32
2023-09-23 14:43:00,SystemResetWarning,0828.7,5.00,000.00,027.9,026.6,000.0,036.1,029.5,13.2,0000.5,0008.39,0003.80,0003.32
2023-09-23 14:44:00,SystemResetWarning,0828.7,5.00,000.00,027.9,026.6,000.0,036.1,029.5,13.6,0000.2,0008.39,0003.79,0003.32
2023-09-23 14:45:00,SystemResetWarning,0828.7,5.00,000.00,027.9,026.6,000.0,036.1,029.5,13.7,0000.4,0008.48,0003.79,0003.32
2023-09-23 14:46:00,SystemResetWarning,0828.7,5.00,000.00,027.9,026.6,000.0,036.1,029.6,14.0,0001.0,0008.38,0003.77,0003.31
2023-09-23 14:47:00,SystemResetWarning,0828.8,5.00,000.00,028.0,026.7,000.0,036.2,029.6,14.3,0000.0,0008.38,0003.75,0003.31
2023-09-23 14:48:00,SystemResetWarning,0828.8,5.00,000.00,028.0,026.7,000.0,036.2,029.6,14.3,0000.0,0008.30,0003.71,0003.30
2023-09-23 14:49:00,SystemResetWarning,0828.8,5.00,000.00,028.0,026.7,000.0,036.2,029.6,14.3,0000.0,0008.27,0003.70,0003.29
2023-09-23 14:50:00,SystemResetWarning,0828.7,5.00,000.00,028.0,026.7,000.0,036.2,029.6,14.3,0000.0,0008.20,0003.68,0003.28
2023-09-23 14:51:00,SystemResetWarning,0828.8,5.00,000.00,028.0,026.7,000.0,036.2,029.6,13.2,0000.0,0008.15,0003.66,0003.26
2023-09-23 14:52:00,SystemResetWarning,0828.8,5.00,000.00,028.0,026.7,000.0,036.3,029.6,12.8,0000.0,0008.14,0003.62,0003.26
2023-09-23 14:53:00,SystemResetWarning,0828.8,5.00,000.00,028.0,026.6,000.0,036.3,029.6,13.4,0000.0,0008.14,0003.61,0003.25
2023-09-23 14:54:00,SystemResetWarning,0828.9,5.00,000.00,028.0,026.7,000.0,036.3,029.6,12.9,0000.0,0008.01,0003.59,0003.26
2023-09-23 14:55:00,SystemResetWarning,0828.9,5.00,000.00,028.0,026.7,000.0,036.3,029.6,13.3,0000.0,0007.50,0003.58,0003.25
2023-09-23 14:56:00,SystemResetWarning,0829.0,5.00,000.00,028.0,026.7,000.0,036.3,029.6,13.5,0000.0,0007.10,0003.57,0003.25
2023-09-23 14:57:00,SystemResetWarning,0828.9,5.00,000.00,028.1,026.7,000.0,036.3,029.6,13.6,0000.0,0006.61,0003.56,0003.25
2023-09-23 14:58:00,SystemResetWarning,0828.8,5.00,000.00,028.1,026.7,000.0,036.3,029.6,13.5,0000.0,0006.50,0003.58,0003.24
2023-09-23 14:59:00,SystemResetWarning,0828.8,5.00,000.00,028.1,026.7,000.0,036.3,029.7,13.1,0001.4,0006.96,0003.61,0003.25
